This is the latest recevied weather packets stored in our database for station/object CA3EVY-3. If no packets are shown the sender has not sent any weather packets the latest 10 day(s).
| Time | Temp. | Humidity | Pressure | Rain* | Wind** | Luminosity | Snow |
|---|---|---|---|---|---|---|---|
| 1777524310 | 16.11° C | 51% | 913.8 hPa | - | - | - | - |
| 1777523411 | -17.78° C | 51% | 913.9 hPa | - | - | - | - |
| 1777522506 | 16.67° C | 51% | 914 hPa | - | - | - | - |
| 1777521611 | -17.78° C | 51% | 914 hPa | - | - | - | - |
| 1777520705 | 16.67° C | 51% | 914.2 hPa | - | - | - | - |
| 1777519805 | 17.22° C | 51% | 914.3 hPa | - | - | - | - |
| 1777518903 | 17.22° C | 51% | 914.5 hPa | - | - | - | - |
| 1777517105 | 17.22° C | 51% | 914.6 hPa | - | - | - | - |
| 1777516210 | 17.22° C | 50% | 914.7 hPa | - | - | - | - |
| 1777515304 | 17.22° C | 50% | 914.7 hPa | - | - | - | - |
| 1777514408 | 17.78° C | 49% | 914.7 hPa | - | - | - | - |
| 1777513503 | 17.78° C | 49% | 914.7 hPa | - | - | - | - |
| 1777512604 | 17.78° C | 48% | 915 hPa | - | - | - | - |
| 1777511704 | 17.78° C | 48% | 915.1 hPa | - | - | - | - |
| 1777510807 | 18.33° C | 48% | 915 hPa | - | - | - | - |
| 1777509904 | 18.33° C | 48% | 914.9 hPa | - | - | - | - |
| 1777509004 | 18.89° C | 47% | 915.1 hPa | - | - | - | - |
| 1777508104 | 18.89° C | 47% | 915.2 hPa | - | - | - | - |
| 1777507208 | 19.44° C | 46% | 915.2 hPa | - | - | - | - |
| 1777506304 | 19.44° C | 46% | 915.3 hPa | - | - | - | - |
| 1777505409 | 20° C | 45% | 915.2 hPa | - | - | - | - |
| 1777504503 | 20° C | 45% | 915.3 hPa | - | - | - | - |
| 1777503604 | 20.56° C | 44% | 915.3 hPa | - | - | - | - |
| 1777502704 | 21.11° C | 44% | 915.3 hPa | - | - | - | - |
| 1777501804 | 21.67° C | 42% | 915.3 hPa | - | - | - | - |
* Rain since midnight (hover to see other rain measurements)
** Current wind speed in m/s (hover to see current wind gust speed)